TimeEST,TemperatureF,Dew PointF,Humidity,Sea Level PressureIn,VisibilityMPH,Wind Direction,Wind SpeedMPH,Gust SpeedMPH,PrecipitationIn,Events,Conditions,WindDirDegrees,DateUTC
12:14 AM,44.8,42.6,92,29.62,10.0,South,10.4,17.3,N/A,,Overcast,180,2013-02-11 05:14:00
12:35 AM,45.0,42.6,91,29.61,10.0,South,10.4,16.1,N/A,,Overcast,170,2013-02-11 05:35:00
12:54 AM,45.5,43.0,91,29.61,10.0,South,11.5,16.1,N/A,,Overcast,180,2013-02-11 05:54:00
1:15 AM,45.7,43.0,90,29.60,10.0,South,13.8,17.3,N/A,,Overcast,180,2013-02-11 06:15:00
1:34 AM,45.7,43.0,90,29.59,10.0,South,10.4,19.6,N/A,,Overcast,180,2013-02-11 06:34:00
1:54 AM,46.4,43.2,88,29.59,10.0,South,11.5,17.3,N/A,,Overcast,190,2013-02-11 06:54:00
2:15 AM,46.4,42.8,87,29.58,10.0,South,10.4,16.1,N/A,,Overcast,190,2013-02-11 07:15:00
2:34 AM,46.4,42.8,87,29.58,10.0,SSW,15.0,19.6,N/A,,Overcast,200,2013-02-11 07:34:00
2:55 AM,45.9,42.4,88,29.57,10.0,SSW,9.2,16.1,N/A,,Mostly Cloudy,200,2013-02-11 07:55:00
3:14 AM,46.4,42.4,86,29.56,10.0,SSW,9.2,18.4,N/A,,Mostly Cloudy,200,2013-02-11 08:14:00
3:34 AM,46.4,42.4,86,29.54,10.0,South,10.4,16.1,N/A,,Mostly Cloudy,180,2013-02-11 08:34:00
3:55 AM,43.7,41.0,90,29.55,7.0,WSW,10.4,-,N/A,Rain,Light Rain,250,2013-02-11 08:55:00
4:14 AM,44.1,39.2,83,29.55,10.0,WSW,13.8,21.9,N/A,,Overcast,240,2013-02-11 09:14:00
4:34 AM,43.7,37.8,80,29.56,10.0,WSW,15.0,25.3,N/A,,Overcast,240,2013-02-11 09:34:00
4:55 AM,42.8,35.8,76,29.56,10.0,WSW,15.0,21.9,N/A,,Overcast,240,2013-02-11 09:55:00
5:14 AM,42.1,32.7,69,29.57,10.0,WSW,21.9,29.9,N/A,,Overcast,240,2013-02-11 10:14:00
5:34 AM,41.9,32.0,68,29.58,10.0,SW,23.0,32.2,N/A,,Overcast,230,2013-02-11 10:34:00
5:54 AM,40.8,31.1,68,29.58,10.0,SW,17.3,32.2,N/A,,Overcast,230,2013-02-11 10:54:00
6:14 AM,39.7,31.1,71,29.59,10.0,WSW,16.1,24.2,N/A,,Overcast,240,2013-02-11 11:14:00
6:54 AM,38.5,30.7,74,29.59,10.0,WSW,12.7,23.0,N/A,,Overcast,250,2013-02-11 11:54:00
7:14 AM,37.8,31.1,77,29.60,10.0,WSW,13.8,19.6,N/A,,Overcast,240,2013-02-11 12:14:00
7:35 AM,37.4,28.4,70,29.61,10.0,WSW,24.2,31.1,N/A,,Overcast,250,2013-02-11 12:35:00
7:54 AM,36.7,27.3,69,29.61,10.0,WSW,26.5,36.8,N/A,,Overcast,240,2013-02-11 12:54:00
8:14 AM,36.0,27.9,72,29.63,10.0,West,20.7,34.5,N/A,,Overcast,260,2013-02-11 13:14:00
8:35 AM,34.7,27.3,74,29.64,10.0,WSW,17.3,35.7,N/A,,Overcast,250,2013-02-11 13:35:00
8:54 AM,34.3,26.4,73,29.64,10.0,WSW,28.8,34.5,N/A,,Overcast,250,2013-02-11 13:54:00
9:14 AM,34.0,25.5,71,29.64,10.0,WSW,26.5,39.1,N/A,,Overcast,240,2013-02-11 14:14:00
9:35 AM,33.6,25.0,71,29.65,10.0,WSW,24.2,36.8,N/A,,Overcast,240,2013-02-11 14:35:00
9:54 AM,33.4,25.2,72,29.66,10.0,WSW,21.9,35.7,N/A,,Overcast,240,2013-02-11 14:54:00
10:14 AM,33.3,25.5,73,29.66,10.0,WSW,19.6,31.1,N/A,,Overcast,240,2013-02-11 15:14:00
10:35 AM,33.1,25.0,72,29.66,10.0,WSW,21.9,34.5,N/A,,Overcast,240,2013-02-11 15:35:00
10:54 AM,33.3,23.9,69,29.66,10.0,WSW,23.0,35.7,N/A,,Overcast,240,2013-02-11 15:54:00
11:15 AM,33.1,23.9,69,29.67,10.0,WSW,24.2,33.4,N/A,,Overcast,240,2013-02-11 16:15:00
11:34 AM,33.4,24.1,69,29.67,10.0,WSW,21.9,36.8,N/A,,Overcast,240,2013-02-11 16:34:00
11:54 AM,33.6,23.9,68,29.67,10.0,WSW,29.9,41.4,N/A,,Overcast,240,2013-02-11 16:54:00
12:15 PM,33.8,23.7,67,29.67,10.0,WSW,26.5,38.0,N/A,,Overcast,240,2013-02-11 17:15:00
12:34 PM,33.4,23.9,68,29.68,10.0,WSW,26.5,38.0,N/A,,Overcast,240,2013-02-11 17:34:00
12:54 PM,33.3,23.9,69,29.68,10.0,WSW,28.8,38.0,N/A,,Overcast,250,2013-02-11 17:54:00
1:15 PM,33.4,23.9,68,29.69,10.0,WSW,27.6,40.3,N/A,,Overcast,250,2013-02-11 18:15:00
1:34 PM,33.3,24.1,69,29.69,10.0,WSW,24.2,34.5,N/A,,Overcast,240,2013-02-11 18:34:00
1:54 PM,33.3,24.1,69,29.70,10.0,WSW,27.6,38.0,N/A,,Overcast,240,2013-02-11 18:54:00
2:15 PM,33.1,24.3,70,29.70,10.0,WSW,25.3,36.8,N/A,,Overcast,240,2013-02-11 19:15:00
2:34 PM,32.9,23.7,69,29.71,10.0,WSW,28.8,38.0,N/A,,Overcast,240,2013-02-11 19:34:00
2:54 PM,32.9,23.9,69,29.71,10.0,WSW,24.2,39.1,N/A,,Overcast,250,2013-02-11 19:54:00
3:15 PM,32.9,24.3,71,29.73,10.0,WSW,25.3,39.1,N/A,,Overcast,250,2013-02-11 20:15:00
3:34 PM,32.9,24.4,71,29.73,10.0,WSW,18.4,35.7,N/A,,Overcast,250,2013-02-11 20:34:00
3:54 PM,32.9,24.4,71,29.74,10.0,WSW,19.6,33.4,N/A,,Overcast,250,2013-02-11 20:54:00
4:15 PM,32.9,24.4,71,29.75,10.0,WSW,21.9,33.4,N/A,,Overcast,250,2013-02-11 21:15:00
4:34 PM,32.9,24.4,71,29.76,10.0,WSW,20.7,32.2,N/A,,Overcast,250,2013-02-11 21:34:00
4:55 PM,32.9,24.6,72,29.77,10.0,WSW,21.9,29.9,N/A,,Overcast,250,2013-02-11 21:55:00
5:55 PM,32.0,23.9,72,29.80,10.0,West,21.9,32.2,N/A,,Overcast,260,2013-02-11 22:55:00
6:14 PM,32.0,23.7,71,29.81,10.0,West,17.3,29.9,N/A,,Overcast,260,2013-02-11 23:14:00
6:34 PM,32.0,23.7,71,29.81,10.0,West,20.7,27.6,N/A,,Overcast,260,2013-02-11 23:34:00
6:54 PM,32.0,23.0,69,29.82,10.0,West,25.3,39.1,N/A,,Overcast,260,2013-02-11 23:54:00
7:14 PM,32.0,23.0,69,29.84,10.0,West,20.7,33.4,N/A,,Overcast,260,2013-02-12 00:14:00
7:35 PM,32.0,22.8,69,29.84,10.0,West,23.0,33.4,N/A,,Overcast,280,2013-02-12 00:35:00
7:54 PM,32.0,23.0,69,29.85,10.0,West,24.2,29.9,N/A,,Overcast,270,2013-02-12 00:54:00
8:15 PM,32.0,23.0,69,29.86,10.0,West,24.2,34.5,N/A,,Overcast,270,2013-02-12 01:15:00
8:34 PM,31.8,22.6,69,29.86,10.0,WNW,24.2,39.1,N/A,,Overcast,290,2013-02-12 01:34:00
8:54 PM,31.5,22.8,70,29.86,10.0,West,18.4,26.5,N/A,,Overcast,270,2013-02-12 01:54:00
9:15 PM,31.5,22.3,69,29.87,10.0,West,24.2,32.2,N/A,,Overcast,280,2013-02-12 02:15:00
9:34 PM,31.1,22.1,69,29.88,10.0,West,23.0,31.1,N/A,,Overcast,270,2013-02-12 02:34:00
9:54 PM,31.1,22.3,70,29.88,10.0,West,15.0,25.3,N/A,,Overcast,270,2013-02-12 02:54:00
10:15 PM,30.9,22.1,70,29.89,10.0,West,18.4,28.8,N/A,,Overcast,270,2013-02-12 03:15:00
10:34 PM,30.9,22.3,70,29.89,10.0,West,15.0,24.2,N/A,,Overcast,280,2013-02-12 03:34:00
10:54 PM,30.7,22.3,71,29.89,10.0,West,19.6,24.2,N/A,,Overcast,270,2013-02-12 03:54:00
11:15 PM,30.7,21.7,69,29.90,10.0,WNW,18.4,33.4,N/A,,Overcast,290,2013-02-12 04:15:00
11:34 PM,30.7,22.1,70,29.91,10.0,West,17.3,25.3,N/A,,Overcast,280,2013-02-12 04:34:00
11:54 PM,30.6,22.5,72,29.92,10.0,West,16.1,20.7,N/A,,Overcast,280,2013-02-12 04:54:00